FW1662 Weather Reports


time (UTC)temp
F
wind
direction
speed
knots
gust
knots
rain 1hr
in
rain 24hr
in
rain mn
in
humidity
%
barometer
mb
20190521231557 68 316 2.6 10.4 0.00 0.00 0.00 40 1015.1
20190521230053 69 330 2.6 13.0 0.00 0.00 0.00 36 1014.8
20190521224539 69 324 3.5 15.6 0.00 0.00 0.00 32 1014.7
20190521223049 69 327 3.5 13.9 0.00 0.00 0.00 32 1014.5
20190521221536 69 338 1.7 9.6 0.00 0.00 0.00 33 1014.2
20190521220106 70 298 4.3 11.3 0.00 0.00 0.00 34 1013.9
20190521214539 70 316 5.2 11.3 0.00 0.00 0.00 34 1013.7
20190521213106 70 340 1.7 9.6 0.00 0.00 0.00 36 1013.6
20190521211609 70 283 2.6 15.6 0.00 0.00 0.00 34 1013.4
20190521210040 71 302 4.3 10.4 0.00 0.00 0.00 34 1013.2
20190521204545 71 320 5.2 12.2 0.00 0.00 0.00 34 1012.8
20190521203022 71 284 4.3 11.3 0.00 0.00 0.00 35 1012.9
20190521201542 71 332 4.3 18.2 0.00 0.00 0.00 38 1012.7
20190521200039 70 301 4.3 13.0 0.00 0.00 0.00 38 1012.8
20190521194600 71 323 2.6 13.9 0.00 0.00 0.00 38 1012.7
20190521193034 70 341 2.6 12.2 0.00 0.00 0.00 38 1012.7
20190521191538 70 325 4.3 12.2 0.00 0.00 0.00 40 1012.8
20190521190034 70 302 1.7 11.3 0.00 0.00 0.00 42 1013.0
20190521184538 69 331 4.3 16.5 0.00 0.00 0.00 40 1013.3
20190521183055 68 250 6.1 13.0 0.00 0.00 0.00 42 1013.1
20190521181516 67 314 2.6 8.7 0.00 0.00 0.00 45 1013.2
20190521180031 67 302 2.6 7.8 0.00 0.00 0.00 44 1013.1
20190521174529 66 349 2.6 12.2 0.00 0.00 0.00 45 1013.1
20190521173039 66 342 4.3 12.2 0.00 0.00 0.00 45 1013.5
20190521171510 65 320 4.3 13.9 0.00 0.00 0.00 46 1014.0
20190521170023 66 348 4.3 8.7 0.00 0.00 0.00 46 1013.9
20190521164509 65 340 3.5 7.8 0.00 0.00 0.00 48 1013.7
20190521163012 64 293 6.1 15.6 0.00 0.00 0.00 45 1013.8
20190521161526 64 337 3.5 10.4 0.00 0.00 0.00 45 1013.7
20190521160007 63 307 3.5 12.2 0.00 0.00 0.00 49 1013.9
20190521154507 62 336 5.2 15.6 0.00 0.00 0.00 49 1014.0
20190521153030 62 310 4.3 13.0 0.00 0.00 0.00 47 1014.1
20190521151507 62 294 4.3 10.4 0.00 0.00 0.00 48 1014.0
20190521150002 61 352 4.3 13.0 0.00 0.00 0.00 48 1014.0
20190521144746 60 303 7.0 15.6 0.00 0.00 0.00 49 1013.9
20190521143212 60 321 5.2 15.6 0.00 0.00 0.00 51 1014.0
20190521141654 60 302 2.6 10.4 0.00 0.00 0.00 53 1014.1
20190521140218 59 310 2.6 12.2 0.00 0.00 0.00 54 1013.9
20190521134707 59 323 5.2 15.6 0.00 0.00 0.00 54 1013.8
20190521133157 59 341 2.6 12.2 0.00 0.00 0.00 56 1013.5
20190521131633 59 312 3.5 13.9 0.00 0.00 0.00 55 1013.6
20190521130113 59 318 4.3 12.2 0.00 0.00 0.00 53 1013.6
20190521124645 59 310 3.5 10.4 0.00 0.00 0.00 55 1013.5
20190521123116 60 328 4.3 11.3 0.00 0.00 0.00 56 1013.6
20190521121637 58 335 3.5 13.0 0.00 0.00 0.00 59 1013.5
20190521120219 58 297 5.2 15.6 0.00 0.00 0.00 58 1013.5
20190521114634 56 308 4.3 10.4 0.00 0.00 0.00 60 1013.7
20190521113128 57 315 4.3 14.8 0.00 0.00 0.00 60 1013.5
20190521111624 57 276 4.3 20.0 0.00 0.00 0.00 59 1013.3
20190521110106 58 295 5.2 13.0 0.00 0.00 0.00 59 1012.6
20190521104636 59 301 3.5 15.6 0.00 0.00 0.00 59 1012.1
20190521103107 59 281 5.2 13.9 0.00 0.00 0.00 61 1011.9
20190521101607 59 299 7.0 14.8 0.00 0.00 0.00 60 1011.8
20190521100045 58 311 4.3 11.3 0.00 0.00 0.00 62 1011.7
20190521094538 59 316 1.7 10.4 0.00 0.00 0.00 61 1011.7
20190521093110 58 278 2.6 7.8 0.00 0.00 0.00 61 1011.8
20190521091555 58 307 3.5 8.7 0.00 0.00 0.00 60 1011.6
20190521090025 59 290 3.5 13.9 0.00 0.00 0.00 60 1011.3
20190521084526 59 299 4.3 12.2 0.00 0.00 0.00 60 1011.1
20190521083047 59 321 5.2 13.0 0.00 0.00 0.00 61 1010.8
20190521081542 60 316 2.6 13.9 0.00 0.00 0.00 63 1010.6
20190521080042 60 328 3.5 10.4 0.00 0.00 0.00 62 1010.8
20190521074524 61 304 5.2 13.0 0.00 0.00 0.00 61 1010.7
20190521073006 61 307 2.6 7.8 0.00 0.00 0.00 65 1010.4
20190521071650 62 302 3.5 9.6 0.00 0.00 0.00 64 1010.6
20190521070146 62 311 3.5 12.2 0.00 0.00 0.00 64 1010.4
20190521064613 63 305 2.6 8.7 0.00 0.00 0.00 63 1010.0
20190521063258 63 314 1.7 6.1 0.00 0.00 0.00 63 1009.9
20190521061642 64 263 1.7 9.6 0.00 0.00 0.00 63 1009.9
20190521060130 65 300 5.2 12.2 0.00 0.00 0.00 62 1009.6
20190521054550 65 296 1.7 6.1 0.00 0.03 0.00 66 1009.5
20190521053125 66 335 0.9 7.8 0.00 0.03 0.00 65 1009.3
20190521051617 66 335 2.6 12.2 0.00 0.03 0.00 66 1009.4
20190521044629 66 308 0.9 2.6 0.00 0.14 0.00 75 1009.3
20190521043049 67 308 0.0 3.5 0.00 0.14 0.00 72 1009.4
20190521041549 69 340 0.9 6.1 0.00 0.14 0.00 68 1009.3
20190521040039 71 293 3.5 13.9 0.00 0.14 0.00 65 1009.0
20190521034539 73 313 5.2 13.9 0.00 0.14 0.14 59 1008.7
20190521033133 74 322 1.7 7.0 0.00 0.14 0.14 53 1008.2
20190521031613 73 218 0.0 2.6 0.00 0.14 0.14 54 1007.8
20190521030111 74 283 0.0 3.5 0.00 0.14 0.14 52 1007.8
20190521024607 75 294 0.0 6.1 0.00 0.14 0.14 51 1007.7
20190521023024 75 183 0.9 5.2 0.00 0.14 0.14 52 1007.7
20190521021550 74 276 0.0 1.7 0.00 0.14 0.14 54 1007.5
20190521020029 74 167 0.0 4.3 0.00 0.14 0.14 55 1007.5
20190521014616 76 167 0.0 1.7 0.00 0.14 0.14 55 1007.1
20190521013033 77 295 0.0 2.6 0.00 0.14 0.14 52 1007.0
20190521011527 78 130 0.0 4.3 0.00 0.14 0.14 52 1007.0
20190521010109 77 293 0.9 4.3 0.00 0.14 0.14 55 1007.0
20190521004518 76 153 0.9 5.2 0.00 0.14 0.14 64 1006.9
20190521003017 75 141 0.0 0.9 0.00 0.14 0.14 70 1006.8
20190521001519 77 126 0.0 1.7 0.00 0.14 0.14 69 1006.7
20190521000025 79 150 0.0 1.7 0.00 0.14 0.14 66 1006.7
20190520234533 81 219 0.0 0.9 0.00 0.14 0.14 64 1006.6
20190520233020 80 219 0.0 0.9 0.00 0.14 0.14 64 1006.6